Location: Unspecified
(41.1637°N, 24.2901°E)
Time: 06:44:55
(UTC+01:00)

ISS - Pass Details

Date: 06 December 2019
Orbit: 411 x 421 km, 51.6° (Epoch: 15 December)

Event Time Altitude Azimuth Distance (km) Brightness Sun altitude
Rises 16:50:36 0° 310° (NW) 2,359 0.5 -10.5°
Reaches altitude 10° 16:53:04 10° 328° (NNW) 1,497 -0.8 -10.9°
Maximum altitude 16:55:39 20° 18° (NNE) 1,021 -2.2 -11.4°
Enters shadow 16:56:53 17° 48° (NE) 1,144 -2.1 -11.6°
